(335163) = 2004 XZ102

Discovered at Anderson Mesa on 2004-12-14 by LONEOS.

Orbit

Orbit type: Main Belt

Note: WebGL enabled browser required.

epoch2023-02-25.0
epoch JD2460000.5
perihelion date2018-09-16.59228
perihelion JD2458378.09228
argument of perihelion (°)159.94676
ascending node (°)295.13121
inclination (°)34.70354
eccentricity0.1572522
perihelion distance (AU)2.3341315
Tisserand w.r.t. Jupiter3.1
ΔV w.r.t. Earth (km/sec)14.6
semimajor axis (AU)2.7696678
mean anomaly (°)346.91440
mean daily motion (°/day)0.21382690
aphelion distance (AU)3.205
period (years)4.61
P-vector [x]-0.14373472
P-vector [y]0.81245964
P-vector [z]0.56502183
Q-vector [x]-0.84478750
Q-vector [y]0.19664208
Q-vector [z]-0.49766051
absolute magnitude15.42
phase slope0.15
uncertainty0
referenceMPO 745323
observations used288
oppositions10
arc length (days)9946
first opposition used1995
last opposition used2023
residual rms (arc-secs)0.71
perturbers coarse indicatorM-v
perturbers precise indicator003Ek
first observation date used1995-11-18.0
last observation date used2023-02-10.0
computer nameMPCLINUX
JD of orbit computation2456877.952555
perihelion JD uncertainty (days)2.5395E-04
argument of perihelion uncertainty (°)5.7684E-05
ascending node uncertainty (°)1.2823E-05
inclination uncertainty (°)1.8425E-05
eccentricity uncertainty 1.4999E-07
perihelion distance uncertainty (AU)4.2064E-07
Minimum Orbit Intersection Distances (in AU)
for orbit epoch: 2460000.5, reference: E2023-HL2
Mercury2.02214
Venus1.62247
Earth1.36263
Mars0.72679
Jupiter1.96938
Saturn6.74957
Uranus16.173
Neptune27.0839

Observations

291 total observations over interval: 1995 11 18.46231 – 2023 02 10.129025
These data are available for download (format description).

Date (UT) J2000 RA J2000 Dec Magn Location Ref
1995 11 18.46231 09 32 55.27 +13 50 46.9 20.1 V 691 – Steward Observatory, Kitt Peak-Spacewatch MPS 317898
1995 11 18.48385 09 32 55.89 +13 50 27.1   691 – Steward Observatory, Kitt Peak-Spacewatch MPS 317898
1995 11 18.50857 09 32 56.65 +13 50 05.2   691 – Steward Observatory, Kitt Peak-Spacewatch MPS 317898
2004 11 22.38764 08 25 16.66 +35 53 53.0 19.1   704 – Lincoln Laboratory ETS, New Mexico MPS 122803
2004 11 22.40052 08 25 16.63 +35 53 48.0 19.1   704 – Lincoln Laboratory ETS, New Mexico MPS 122803
2004 11 22.41290 08 25 16.40 +35 53 43.0 19.4   704 – Lincoln Laboratory ETS, New Mexico MPS 122803
2004 11 22.42556 08 25 16.31 +35 53 37.9 19.4   704 – Lincoln Laboratory ETS, New Mexico MPS 122803
2004 11 22.43792 08 25 16.15 +35 53 32.4 18.9   704 – Lincoln Laboratory ETS, New Mexico MPS 122803
2004 12 02.35227 08 21 40.43 +34 42 57.8 19.0   704 – Lincoln Laboratory ETS, New Mexico MPS 122803
2004 12 02.37489 08 21 39.58 +34 42 47.0 19.2   704 – Lincoln Laboratory ETS, New Mexico MPS 122803
2004 12 02.38827 08 21 39.05 +34 42 41.7 19.2   704 – Lincoln Laboratory ETS, New Mexico MPS 122803
2004 12 02.40131 08 21 38.64 +34 42 35.4 18.5   704 – Lincoln Laboratory ETS, New Mexico MPS 122803
2004 12 14.34188 08 11 36.03 +33 04 31.4 18.3 R 699 – Lowell Observatory-LONEOS MPS 122803
2004 12 14.35737 08 11 34.93 +33 04 23.2   699 – Lowell Observatory-LONEOS MPS 122803
2004 12 14.37285 08 11 33.94 +33 04 14.7   699 – Lowell Observatory-LONEOS MPS 122803
2004 12 14.38836 08 11 32.92 +33 04 06.9   699 – Lowell Observatory-LONEOS MPS 122803
2004 12 15.35554 08 10 28.38 +32 55 15.5 18.2   704 – Lincoln Laboratory ETS, New Mexico MPS 122803
2004 12 15.37026 08 10 27.39 +32 55 07.9 18.5   704 – Lincoln Laboratory ETS, New Mexico MPS 122803
2004 12 15.38467 08 10 26.38 +32 54 59.8 18.8   704 – Lincoln Laboratory ETS, New Mexico MPS 122803
2004 12 15.39899 08 10 25.39 +32 54 51.8 18.7   704 – Lincoln Laboratory ETS, New Mexico MPS 122803
2004 12 15.41340 08 10 24.38 +32 54 43.9 18.8   704 – Lincoln Laboratory ETS, New Mexico MPS 122803
2004 12 16.29600 08 09 23.73 +32 46 30.9 18.4 R 699 – Lowell Observatory-LONEOS MPS 122803
2004 12 16.31393 08 09 22.39 +32 46 20.9   699 – Lowell Observatory-LONEOS MPS 122803
2004 12 16.33188 08 09 21.09 +32 46 12.1   699 – Lowell Observatory-LONEOS MPS 122803
2004 12 16.34982 08 09 19.81 +32 46 01.2   699 – Lowell Observatory-LONEOS MPS 122803
2004 12 21.36654 08 03 01.04 +31 56 38.0 18.1 R 703 – Catalina Sky Survey MPS 122803
2004 12 21.37719 08 03 00.22 +31 56 30.6 17.8 R 703 – Catalina Sky Survey MPS 122803
2004 12 21.38787 08 02 59.35 +31 56 24.6 17.9 R 703 – Catalina Sky Survey MPS 122803
2004 12 21.39861 08 02 58.41 +31 56 18.2 17.9 R 703 – Catalina Sky Survey MPS 122803
2005 01 01.90665 07 45 49.78 +29 44 07.7 18.2 R 106 – Crni Vrh MPS 123595
2005 01 01.91242 07 45 49.20 +29 44 03.5 18.4 R 106 – Crni Vrh MPS 123595
2005 01 01.91813 07 45 48.63 +29 43 59.4 18.3 R 106 – Crni Vrh MPS 123595
2005 01 07.27632 07 37 07.22 +28 33 34.4 18.1   704 – Lincoln Laboratory ETS, New Mexico MPS 123595
2005 01 07.28926 07 37 05.92 +28 33 23.4 18.5   704 – Lincoln Laboratory ETS, New Mexico MPS 123595
2005 01 07.30380 07 37 04.45 +28 33 11.8 18.6   704 – Lincoln Laboratory ETS, New Mexico MPS 123595
2005 01 07.31730 07 37 03.10 +28 33 00.8 18.3   704 – Lincoln Laboratory ETS, New Mexico MPS 123595
2005 01 07.33025 07 37 01.81 +28 32 50.2 18.5   704 – Lincoln Laboratory ETS, New Mexico MPS 123595
2005 01 12.35749 07 28 51.17 +27 22 18.4 17.7   704 – Lincoln Laboratory ETS, New Mexico MPS 124124
2005 01 12.38687 07 28 48.29 +27 21 53.2 18.0   704 – Lincoln Laboratory ETS, New Mexico MPS 124124
2005 01 12.40135 07 28 46.86 +27 21 40.3 17.8   704 – Lincoln Laboratory ETS, New Mexico MPS 124124
2005 01 12.41576 07 28 45.44 +27 21 27.7 18.0   704 – Lincoln Laboratory ETS, New Mexico MPS 124124
2005 01 16.28880 07 22 37.67 +26 24 52.2 18.0   704 – Lincoln Laboratory ETS, New Mexico MPS 124773
2005 01 16.30245 07 22 36.36 +26 24 40.3 18.4   704 – Lincoln Laboratory ETS, New Mexico MPS 124773
2005 01 16.31642 07 22 35.03 +26 24 27.8 18.5   704 – Lincoln Laboratory ETS, New Mexico MPS 124773
2005 01 16.33011 07 22 33.72 +26 24 15.2 18.5   704 – Lincoln Laboratory ETS, New Mexico MPS 124773
2005 01 18.25726 07 19 36.49 +25 55 34.1 18.3 V 691 – Steward Observatory, Kitt Peak-Spacewatch MPS 124773
2005 01 18.28380 07 19 34.02 +25 55 10.5 18.3 V 691 – Steward Observatory, Kitt Peak-Spacewatch MPS 124773
2005 01 18.31565 07 19 31.04 +25 54 41.8 18.3 V 691 – Steward Observatory, Kitt Peak-Spacewatch MPS 124773
2005 01 19.28064 07 18 04.09 +25 40 13.5 17.6   704 – Lincoln Laboratory ETS, New Mexico MPS 124773
2005 01 19.29400 07 18 02.87 +25 40 01.1 18.2   704 – Lincoln Laboratory ETS, New Mexico MPS 124773
2005 01 19.30763 07 18 01.63 +25 39 49.6 19.1   704 – Lincoln Laboratory ETS, New Mexico MPS 124773
2005 01 19.32089 07 18 00.39 +25 39 36.5 18.3   704 – Lincoln Laboratory ETS, New Mexico MPS 124773
2005 01 19.33379 07 17 59.19 +25 39 25.2 17.8   704 – Lincoln Laboratory ETS, New Mexico MPS 124773
2005 01 30.22118 07 03 24.56 +22 55 10.6   701 – Junk Bond Observatory, Sierra Vista MPS 125744
2005 01 30.25223 07 03 22.32 +22 54 43.1   701 – Junk Bond Observatory, Sierra Vista MPS 125744
2005 02 01.21205 07 01 09.80 +22 25 35.0 16.9 R 703 – Catalina Sky Survey MPS 125744
2005 02 01.21851 07 01 09.27 +22 25 29.2 17.9 R 703 – Catalina Sky Survey MPS 125744
2005 02 01.22504 07 01 08.83 +22 25 22.9 18.0 R 703 – Catalina Sky Survey MPS 125744
2005 02 01.23155 07 01 08.40 +22 25 17.5 17.8 R 703 – Catalina Sky Survey MPS 125744
2005 02 02.22289 07 00 04.51 +22 10 39.0 18.1   704 – Lincoln Laboratory ETS, New Mexico MPS 125744
2005 02 02.23533 07 00 03.67 +22 10 28.7 18.6   704 – Lincoln Laboratory ETS, New Mexico MPS 125744
2005 02 02.24887 07 00 02.83 +22 10 17.1 18.5   704 – Lincoln Laboratory ETS, New Mexico MPS 125744
2005 02 02.26135 07 00 01.97 +22 10 06.1 18.7   704 – Lincoln Laboratory ETS, New Mexico MPS 125744
2005 02 02.27377 07 00 01.19 +22 09 54.2 18.4   704 – Lincoln Laboratory ETS, New Mexico MPS 125744
2010 02 10.21247 09 51 19.69 -24 59 12.3 19.3 R I19 – Observatorio El Gato Gris, Tanti MPS 317898
2010 02 10.23788 09 51 17.54 -24 59 24.5 19.6 R I19 – Observatorio El Gato Gris, Tanti MPS 317898
2010 02 10.24494 09 51 17.00 -24 59 28.1 19.5 R I19 – Observatorio El Gato Gris, Tanti MPS 317898
2010 02 13.08396 09 47 28.03 -25 20 52.0 19.3 R I19 – Observatorio El Gato Gris, Tanti MPS 317898
2010 02 13.09137 09 47 27.42 -25 20 55.3 19.4 R I19 – Observatorio El Gato Gris, Tanti MPS 317898
2010 02 13.09840 09 47 26.78 -25 20 58.4 19.0 R I19 – Observatorio El Gato Gris, Tanti MPS 317898
2010 02 17.65237 09 41 16.04 -25 48 19.4 20.9 V E12 – Siding Spring Survey MPS 316716
2010 02 17.66601 09 41 14.85 -25 48 25.0 19.6 V E12 – Siding Spring Survey MPS 316716
2010 02 17.67966 09 41 13.77 -25 48 27.7 19.2 V E12 – Siding Spring Survey MPS 316716
2010 02 17.69333 09 41 12.66 -25 48 32.2 19.9 V E12 – Siding Spring Survey MPS 316716
2010 05 14.47637 09 16 38.30 -21 38 24.2   C51 – WISE MPS 344856
2010 05 14.60867 09 16 45.06 -21 38 06.1   C51 – WISE MPS 344856
2010 05 14.740978 09 16 51.86 -21 37 48.4   C51 – WISE MPS 344856
2010 05 15.005586 09 17 05.32 -21 37 17.4   C51 – WISE MPS 344856
2010 05 15.13789 09 17 12.17 -21 36 59.8   C51 – WISE MPS 344856
2010 05 15.270193 09 17 18.86 -21 36 44.1   C51 – WISE MPS 344856
2010 05 15.33641 09 17 22.35 -21 36 36.4   C51 – WISE MPS 344856
2010 05 15.402498 09 17 25.74 -21 36 30.0   C51 – WISE MPS 344856
2010 05 15.468713 09 17 29.22 -21 36 21.7   C51 – WISE MPS 344856
2010 05 15.733321 09 17 43.01 -21 35 48.4   C51 – WISE MPS 344857
2010 05 15.997929 09 17 56.65 -21 35 17.3   C51 – WISE MPS 344857
2012 08 08.38654 20 59 57.578 +06 37 30.94 19.9 r F51 – Pan-STARRS 1, Haleakala MPS 429033
2012 08 08.39688 20 59 56.848 +06 37 33.26 19.8 r F51 – Pan-STARRS 1, Haleakala MPS 429033
2012 08 08.40808 20 59 56.055 +06 37 36.05 19.7 i F51 – Pan-STARRS 1, Haleakala MPS 429033
2012 08 12.32615 20 55 30.711 +06 51 18.87 20.2 g F51 – Pan-STARRS 1, Haleakala MPS 429345
